CW1906 Weather Reports


Display with metric or nautical units.
time (UTC)temp
F
wind
direction
speed
MPH
gust
MPH
rain 1hr
in
rain 24hr
in
rain mn
in
humidity
%
barometer
mb
20211127024812 40 180 1.0 3.0 0.00 0.00 0.00 49 1016.5
20211127023316 40 176 1.0 3.0 0.00 0.00 0.00 49 1016.5
20211127021825 39 175 1.0 2.0 0.00 0.00 0.00 50 1016.5
20211127020329 39 164 0.0 1.0 0.00 0.00 0.00 50 1016.7
20211127014817 39 166 0.0 2.0 0.00 0.00 0.00 51 1016.8
20211127013320 39 153 1.0 2.0 0.00 0.00 0.00 50 1016.7
20211127011809 37 158 1.0 2.0 0.00 0.00 0.00 53 1016.7
20211127010310 34 150 1.0 1.0 0.00 0.00 0.00 58 1016.7
20211127004819 34 138 0.0 1.0 0.00 0.00 0.00 63 1016.7
20211127003323 34 138 0.0 0.0 0.00 0.00 0.00 60 1016.9
20211127001810 35 138 0.0 0.0 0.00 0.00 0.00 56 1017.0
20211127000315 35 138 0.0 0.0 0.00 0.00 0.00 56 1017.1
20211126234821 37 138 0.0 0.0 0.00 0.00 0.00 50 1017.3
20211126233324 39 138 0.0 1.0 0.00 0.00 0.00 47 1017.3
20211126231813 41 138 0.0 1.0 0.00 0.00 0.00 44 1017.4
20211126230317 42 138 0.0 2.0 0.00 0.00 0.00 41 1017.5
20211126224825 43 157 1.0 1.0 0.00 0.00 0.00 40 1017.6
20211126223309 43 145 1.0 2.0 0.00 0.00 0.00 38 1017.9
20211126221814 44 207 2.0 3.0 0.00 0.00 0.00 38 1018.1
20211126220318 44 142 3.0 4.0 0.00 0.00 0.00 37 1018.1
20211126214823 45 211 2.0 6.0 0.00 0.00 0.00 37 1018.2
20211126213311 45 204 1.0 5.0 0.00 0.00 0.00 37 1018.3
20211126211812 45 182 4.0 6.0 0.00 0.00 0.00 37 1018.3
20211126210320 44 155 3.0 6.0 0.00 0.00 0.00 36 1018.4
20211126204824 44 139 4.0 9.0 0.00 0.00 0.00 37 1018.7
20211126203312 43 137 5.0 8.0 0.00 0.00 0.00 37 1019.1
20211126201817 43 229 2.0 6.0 0.00 0.00 0.00 38 1019.4
20211126200324 42 169 2.0 8.0 0.00 0.00 0.00 39 1019.7
20211126194809 42 209 4.0 7.0 0.00 0.00 0.00 40 1020.1
20211126193317 41 186 4.0 7.0 0.00 0.00 0.00 41 1020.6
20211126191821 40 167 4.0 8.0 0.00 0.00 0.00 43 1021.1
20211126190309 40 180 3.0 7.0 0.00 0.00 0.00 42 1021.5
20211126184826 39 155 3.0 6.0 0.00 0.00 0.00 43 1022.3
20211126183313 39 204 3.0 4.0 0.00 0.00 0.00 44 1022.4
20211126181818 38 248 2.0 5.0 0.00 0.00 0.00 45 1022.8
20211126180326 37 105 2.0 6.0 0.00 0.00 0.00 44 1023.5
20211126174811 36 201 3.0 6.0 0.00 0.00 0.00 45 1023.8
20211126173319 35 198 3.0 4.0 0.00 0.00 0.00 46 1024.2
20211126171823 34 209 1.0 3.0 0.00 0.00 0.00 45 1024.8
20211126170311 34 188 2.0 4.0 0.00 0.00 0.00 43 1025.1
20211126164814 34 200 2.0 4.0 0.00 0.00 0.00 45 1025.5
20211126163323 33 202 3.0 5.0 0.00 0.00 0.00 50 1025.5
20211126161826 32 160 1.0 3.0 0.00 0.00 0.00 53 1025.9
20211126160312 32 212 1.0 4.0 0.00 0.00 0.00 57 1026.0
20211126154815 31 184 2.0 3.0 0.00 0.00 0.00 54 1026.3
20211126151828 29 110 1.0 3.0 0.00 0.00 0.00 60 1026.3
20211126150309 29 198 2.0 3.0 0.00 0.00 0.00 61 1026.3
20211126144818 27 154 1.0 3.0 0.00 0.00 0.00 63 1026.4
20211126143322 25 101 0.0 1.0 0.00 0.00 0.00 79 1026.4
20211126141811 23 69 0.0 1.0 0.00 0.00 0.00 82 1026.5
20211126134823 21 56 0.0 0.0 0.00 0.00 0.00 87 1026.6
20211126133327 19 276 0.0 0.0 0.00 0.00 0.00 88 1026.6
20211126131815 17 327 0.0 0.0 0.00 0.00 0.00 88 1026.8
20211126130320 16 326 0.0 0.0 0.00 0.00 0.00 88 1026.8
20211126124808 16 326 0.0 1.0 0.00 0.00 0.00 88 1026.7
20211126123312 16 327 0.0 1.0 0.00 0.00 0.00 88 1027.1
20211126121820 16 327 0.0 0.0 0.00 0.00 0.00 87 1027.5
20211126120323 17 327 0.0 0.0 0.00 0.00 0.00 86 1027.7
20211126114811 17 326 0.0 0.0 0.00 0.00 0.00 86 1027.5
20211126113316 17 327 0.0 0.0 0.00 0.00 0.00 85 1027.5
20211126111824 18 327 0.0 0.0 0.00 0.00 0.00 83 1027.7
20211126104818 18 327 0.0 0.0 0.00 0.00 0.00 83 1028.0
20211126103319 18 35 0.0 1.0 0.00 0.00 0.00 83 1028.0
20211126100314 19 34 0.0 0.0 0.00 0.00 0.00 80 1028.7
20211126093308 20 34 0.0 0.0 0.00 0.01 0.00 75 1028.6
20211126091813 21 34 0.0 0.0 0.00 0.01 0.00 74 1028.6
20211126090321 21 34 0.0 1.0 0.00 0.01 0.00 72 1028.6
20211126083315 21 257 0.0 1.0 0.00 0.04 0.00 72 1028.8
20211126081819 21 257 0.0 0.0 0.00 0.04 0.00 74 1028.8
20211126080327 21 257 0.0 0.0 0.00 0.04 0.00 72 1028.6
20211126074809 21 249 0.0 1.0 0.00 0.06 0.00 71 1028.7
20211126071825 22 269 0.0 0.0 0.00 0.06 0.00 71 1028.7
20211126064817 21 334 0.0 1.0 0.00 0.17 0.00 73 1028.6
20211126061812 21 286 0.0 1.0 0.00 0.17 0.00 76 1028.6
20211126060314 21 335 0.0 0.0 0.00 0.17 0.00 77 1028.8
20211126054823 21 335 0.0 1.0 0.00 0.26 0.17 78 1028.8
20211126053325 21 301 0.0 1.0 0.00 0.26 0.17 81 1028.9
20211126050320 22 301 0.0 0.0 0.00 0.26 0.17 78 1029.1
20211126044809 23 301 0.0 0.0 0.00 0.29 0.17 76 1029.2
20211126043310 23 301 0.0 1.0 0.00 0.29 0.17 74 1029.4
20211126041819 23 311 0.0 1.0 0.00 0.29 0.17 73 1029.4
20211126040323 23 14 0.0 1.0 0.00 0.29 0.17 73 1029.3
20211126034812 23 23 0.0 1.0 0.00 0.30 0.17 73 1029.0
20211126033316 24 335 0.0 1.0 0.00 0.30 0.17 72 1029.1
20211126031824 24 335 0.0 1.0 0.00 0.30 0.17 71 1028.9
20211126030325 25 354 0.0 1.0 0.00 0.30 0.17 70 1028.9